QPF
0.00 0.00 0.00 0.00 0.00 0.00 0.00 0.00 0.00 0.00 0.00 0.00 0.00 0.00 0.00 0.00 0.00 0.00 0.00 0.00 0.00 0.00 0.00 0.00 0.00 0.00 0.00 0.00 0.00 0.00 0.00 0.00 0.00 0.00 0.00 0.00 0.00 0.00 0.00 0.00 0.00 0.00 0.00
0.00 0.00 0.00 0.00 0.00 0.00 0.00 0.00 0.00 0.00 0.00 0.00 0.00 0.00 0.00 0.00 0.00 0.00 0.00 0.00 0.00 0.00 0.00 0.00 0.00 0.00 0.00 0.00 0.00 0.00 0.00 0.00 0.00 0.00 0.00 0.00 0.00 0.00 0.00 0.00 0.00 0.00 0.00
0.00 0.00 0.00 0.00 0.00 0.00 0.00 0.00 0.00 0.00 0.00 0.00 0.00 0.00 0.00 0.00 0.00 0.00 0.00 0.00 0.00 0.00 0.00 0.00 0.00 0.00 0.00 0.00 0.00 0.00 0.00 0.00 0.00 0.00 0.00 0.00 0.00 0.00 0.00 0.00 0.00 0.00 0.00
0.00 0.00 0.00 0.00 0.00 0.00 0.00 0.00 0.00 0.00 0.00 0.00 0.00 0.00 0.00 0.00 0.00 0.00 0.00 0.00 0.00 0.00 0.00 0.00 0.00 0.00 0.00 0.00 0.00 0.00 0.00 0.00 0.00 0.00 0.00 0.00 0.00 0.00 0.00 0.01 0.01 0.00 0.00
0.00 0.00 0.00 0.00 0.00 0.00 0.00 0.00 0.00 0.00 0.00 0.00 0.00 0.00 0.00 0.00 0.00 0.00 0.00 0.00 0.00 0.00 0.00 0.00 0.00 0.00 0.00 0.00 0.00 0.00 0.00 0.00 0.00 0.00 0.00 0.00 0.01 0.01 0.00 0.01 0.01 0.02 0.02
0.00 0.00 0.00 0.00 0.00 0.00 0.00 0.00 0.00 0.00 0.00 0.00 0.00 0.00 0.00 0.00 0.00 0.00 0.00 0.00 0.00 0.00 0.00 0.00 0.00 0.00 0.00 0.00 0.00 0.00 0.00 0.00 0.00 0.00 0.00 0.01 0.02 0.02 0.02 0.05 0.06 0.06 0.06
0.00 0.00 0.00 0.00 0.00 0.00 0.00 0.00 0.00 0.00 0.00 0.00 0.00 0.00 0.00 0.00 0.00 0.00 0.00 0.00 0.00 0.00 0.00 0.00 0.00 0.00 0.00 0.00 0.00 0.00 0.00 0.00 0.00 0.00 0.00 0.00 0.01 0.01 0.02 0.09 0.14 0.13 0.12
0.00 0.00 0.00 0.00 0.00 0.00 0.00 0.00 0.00 0.00 0.00 0.00 0.00 0.00 0.00 0.00 0.00 0.00 0.00 0.00 0.00 0.00 0.00 0.00 0.00 0.00 0.01 0.01 0.01 0.01 0.01 0.01 0.00 0.00 0.01 0.00 0.00 0.00 0.01 0.07 0.14 0.14 0.13
0.00 0.00 0.00 0.00 0.00 0.00 0.00 0.00 0.00 0.00 0.00 0.00 0.00 0.00 0.00 0.00 0.00 0.00 0.00 0.00 0.00 0.00 0.00 0.00 0.00 0.00 0.00 0.01 0.01 0.01 0.01 0.01 0.00 0.01 0.01 0.01 0.00 0.00 0.01 0.05 0.09 0.12 0.12
0.00 0.00 0.00 0.00 0.00 0.00 0.00 0.00 0.00 0.00 0.00 0.00 0.00 0.00 0.00 0.00 0.00 0.00 0.00 0.00 0.00 0.00 0.00 0.00 0.00 0.00 0.00 0.00 0.00 0.01 0.01 0.01 0.01 0.02 0.03 0.02 0.00 0.01 0.02 0.04 0.08 0.11 0.11
0.00 0.00 0.00 0.00 0.00 0.00 0.00 0.00 0.00 0.00 0.00 0.00 0.00 0.00 0.00 0.00 0.00 0.00 0.00 0.00 0.00 0.01 0.01 0.02 0.01 0.01 0.00 0.00 0.01 0.01 0.02 0.02 0.02 0.03 0.05 0.03 0.02 0.03 0.05 0.05 0.07 0.09 0.11
0.00 0.00 0.00 0.00 0.00 0.00 0.00 0.00 0.00 0.00 0.00 0.00 0.01 0.01 0.01 0.00 0.00 0.00 0.00 0.00 0.01 0.02 0.03 0.04 0.04 0.02 0.03 0.04 0.04 0.04 0.04 0.02 0.03 0.03 0.04 0.02 0.03 0.08 0.09 0.08 0.08 0.09 0.09
0.00 0.00 0.00 0.00 0.00 0.00 0.00 0.00 0.00 0.00 0.01 0.00 0.00 0.01 0.01 0.00 0.00 0.00 0.00 0.00 0.00 0.01 0.03 0.03 0.05 0.04 0.05 0.07 0.06 0.05 0.04 0.04 0.05 0.03 0.02 0.02 0.03 0.09 0.12 0.10 0.09 0.08 0.08
0.00 0.00 0.00 0.00 0.00 0.00 0.00 0.00 0.00 0.00 0.00 0.00 0.00 0.00 0.00 0.00 0.00 0.00 0.00 0.00 0.02 0.03 0.04 0.05 0.07 0.05 0.05 0.04 0.02 0.02 0.03 0.07 0.05 0.05 0.06 0.02 0.03 0.05 0.09 0.09 0.08 0.07 0.06
0.00 0.00 0.00 0.00 0.00 0.00 0.00 0.00 0.00 0.00 0.00 0.00 0.00 0.00 0.00 0.00 0.00 0.00 0.00 0.02 0.01 0.01 0.03 0.06 0.05 0.04 0.03 0.02 0.01 0.01 0.01 0.03 0.04 0.04 0.03 0.02 0.02 0.03 0.07 0.08 0.08 0.06 0.05
0.00 0.00 0.00 0.00 0.00 0.00 0.00 0.00 0.00 0.00 0.00 0.00 0.00 0.00 0.00 0.00 0.00 0.00 0.00 0.02 0.02 0.02 0.03 0.05 0.04 0.05 0.03 0.02 0.01 0.01 0.01 0.01 0.02 0.03 0.02 0.02 0.01 0.01 0.03 0.06 0.07 0.06 0.05
0.00 0.00 0.00 0.00 0.00 0.00 0.00 0.00 0.00 0.00 0.00 0.00 0.00 0.00 0.00 0.00 0.01 0.01 0.01 0.02 0.03 0.03 0.05 0.06 0.05 0.05 0.04 0.02 0.02 0.02 0.02 0.01 0.00 0.01 0.01 0.01 0.00 0.00 0.01 0.03 0.05 0.05 0.05
0.00 0.00 0.00 0.00 0.00 0.00 0.00 0.00 0.00 0.00 0.00 0.00 0.00 0.00 0.01 0.01 0.02 0.04 0.03 0.04 0.07 0.06 0.06 0.09 0.08 0.08 0.08 0.06 0.04 0.02 0.01 0.00 0.00 0.00 0.00 0.00 0.00 0.00 0.00 0.01 0.03 0.03 0.05
0.00 0.00 0.00 0.00 0.00 0.00 0.00 0.00 0.00 0.00 0.00 0.01 0.01 0.02 0.03 0.04 0.05 0.07 0.08 0.10 0.10 0.11 0.12 0.08 0.09 0.11 0.09 0.08 0.04 0.03 0.00 0.00 0.00 0.00 0.00 0.00 0.00 0.01 0.00 0.00 0.00 0.01 0.03
0.00 0.00 0.01 0.01 0.00 0.01 0.01 0.01 0.01 0.01 0.01 0.02 0.04 0.05 0.07 0.08 0.08 0.10 0.11 0.14 0.16 0.18 0.18 0.17 0.16 0.13 0.10 0.09 0.03 0.02 0.01 0.00 0.00 0.00 0.00 0.00 0.00 0.00 0.00 0.00 0.01 0.01 0.01
0.01 0.02 0.02 0.01 0.02 0.04 0.05 0.05 0.06 0.06 0.07 0.08 0.10 0.10 0.11 0.13 0.14 0.15 0.13 0.21 0.27 0.27 0.27 0.24 0.19 0.16 0.14 0.12 0.07 0.03 0.01 0.00 0.00 0.00 0.00 0.00 0.00 0.00 0.00 0.00 0.01 0.03 0.04
0.02 0.04 0.03 0.04 0.07 0.09 0.13 0.16 0.15 0.15 0.15 0.16 0.17 0.15 0.17 0.18 0.20 0.20 0.24 0.30 0.33 0.34 0.32 0.27 0.21 0.18 0.15 0.12 0.09 0.05 0.02 0.01 0.00 0.00 0.00 0.00 0.00 0.00 0.01 0.01 0.02 0.04 0.05
0.03 0.05 0.06 0.05 0.08 0.11 0.16 0.19 0.18 0.17 0.17 0.18 0.20 0.19 0.21 0.24 0.27 0.30 0.31 0.33 0.33 0.30 0.28 0.25 0.21 0.18 0.14 0.12 0.09 0.07 0.04 0.02 0.01 0.00 0.00 0.00 0.01 0.02 0.01 0.00 0.00 0.01 0.02
0.05 0.05 0.05 0.05 0.07 0.09 0.14 0.18 0.23 0.26 0.26 0.27 0.31 0.29 0.30 0.30 0.30 0.33 0.32 0.33 0.34 0.32 0.28 0.24 0.20 0.17 0.14 0.11 0.09 0.07 0.06 0.06 0.04 0.02 0.00 0.01 0.02 0.02 0.02 0.01 0.00 0.00 0.01
0.05 0.05 0.06 0.06 0.08 0.10 0.13 0.17 0.27 0.33 0.35 0.39 0.39 0.39 0.37 0.35 0.34 0.33 0.34 0.40 0.41 0.37 0.33 0.31 0.24 0.17 0.13 0.10 0.09 0.07 0.07 0.09 0.09 0.07 0.03 0.03 0.03 0.03 0.02 0.01 0.01 0.01 0.01
0.04 0.05 0.07 0.07 0.07 0.09 0.12 0.17 0.24 0.31 0.38 0.41 0.39 0.39 0.42 0.39 0.36 0.35 0.35 0.38 0.39 0.35 0.28 0.23 0.19 0.15 0.10 0.08 0.07 0.06 0.06 0.07 0.09 0.10 0.06 0.04 0.04 0.03 0.03 0.02 0.03 0.03 0.03
MSLP
1011.84 1012.01 1012.38 1012.89 1013.45 1013.96 1014.35 1014.58 1014.68 1014.68 1014.67 1014.72 1014.88 1015.15 1015.51 1015.91 1016.30 1016.60 1016.81 1016.92 1016.95 1016.94 1016.95 1016.99 1017.08 1017.20 1017.34 1017.46 1017.54 1017.57 1017.56 1017.52 1017.49 1017.48 1017.52 1017.60 1017.71 1017.84 1017.96 1018.05 1018.10 1018.11 1018.11
1011.62 1011.90 1012.37 1012.98 1013.61 1014.16 1014.56 1014.78 1014.85 1014.82 1014.77 1014.79 1014.93 1015.20 1015.56 1015.97 1016.35 1016.66 1016.85 1016.94 1016.96 1016.95 1016.96 1017.03 1017.16 1017.33 1017.51 1017.67 1017.76 1017.79 1017.76 1017.70 1017.63 1017.61 1017.64 1017.73 1017.86 1018.02 1018.17 1018.28 1018.34 1018.36 1018.34
1011.41 1011.79 1012.36 1013.04 1013.73 1014.33 1014.76 1015.00 1015.07 1015.04 1014.99 1015.00 1015.13 1015.37 1015.71 1016.09 1016.44 1016.71 1016.86 1016.92 1016.91 1016.90 1016.92 1017.02 1017.18 1017.40 1017.61 1017.79 1017.88 1017.89 1017.83 1017.72 1017.62 1017.56 1017.58 1017.67 1017.82 1018.01 1018.18 1018.33 1018.42 1018.45 1018.45
1011.24 1011.68 1012.32 1013.06 1013.81 1014.46 1014.94 1015.22 1015.32 1015.32 1015.29 1015.31 1015.43 1015.66 1015.96 1016.29 1016.58 1016.78 1016.88 1016.89 1016.87 1016.85 1016.89 1017.01 1017.21 1017.45 1017.68 1017.86 1017.94 1017.91 1017.80 1017.64 1017.49 1017.40 1017.39 1017.47 1017.64 1017.84 1018.05 1018.22 1018.34 1018.41 1018.44
1011.10 1011.60 1012.27 1013.05 1013.84 1014.53 1015.06 1015.39 1015.55 1015.60 1015.61 1015.66 1015.78 1015.99 1016.25 1016.52 1016.74 1016.88 1016.93 1016.90 1016.86 1016.84 1016.90 1017.04 1017.26 1017.52 1017.75 1017.91 1017.96 1017.88 1017.71 1017.50 1017.30 1017.16 1017.13 1017.21 1017.37 1017.59 1017.81 1018.01 1018.16 1018.26 1018.33
1011.03 1011.54 1012.22 1013.02 1013.82 1014.53 1015.10 1015.48 1015.70 1015.81 1015.87 1015.95 1016.09 1016.28 1016.51 1016.72 1016.89 1016.98 1016.99 1016.94 1016.89 1016.88 1016.95 1017.12 1017.35 1017.61 1017.82 1017.95 1017.95 1017.82 1017.60 1017.33 1017.09 1016.93 1016.87 1016.94 1017.09 1017.31 1017.55 1017.76 1017.93 1018.05 1018.14
1011.05 1011.54 1012.20 1012.96 1013.74 1014.46 1015.04 1015.46 1015.73 1015.89 1016.00 1016.12 1016.27 1016.46 1016.66 1016.84 1016.98 1017.03 1017.02 1016.97 1016.93 1016.94 1017.03 1017.21 1017.44 1017.68 1017.86 1017.94 1017.89 1017.72 1017.46 1017.16 1016.89 1016.71 1016.64 1016.70 1016.85 1017.06 1017.29 1017.50 1017.66 1017.79 1017.89
1011.17 1011.61 1012.21 1012.92 1013.65 1014.32 1014.89 1015.32 1015.61 1015.81 1015.96 1016.11 1016.28 1016.47 1016.66 1016.83 1016.95 1017.00 1016.99 1016.96 1016.93 1016.96 1017.07 1017.24 1017.45 1017.66 1017.80 1017.84 1017.75 1017.54 1017.25 1016.94 1016.67 1016.50 1016.44 1016.50 1016.64 1016.84 1017.05 1017.24 1017.38 1017.49 1017.58
1011.38 1011.75 1012.27 1012.89 1013.54 1014.15 1014.67 1015.08 1015.37 1015.59 1015.76 1015.92 1016.10 1016.30 1016.50 1016.67 1016.79 1016.85 1016.86 1016.85 1016.85 1016.89 1016.99 1017.15 1017.33 1017.49 1017.59 1017.58 1017.45 1017.23 1016.94 1016.65 1016.40 1016.26 1016.22 1016.30 1016.45 1016.63 1016.81 1016.97 1017.07 1017.15 1017.21
1011.62 1011.93 1012.37 1012.89 1013.44 1013.96 1014.41 1014.77 1015.05 1015.25 1015.43 1015.60 1015.79 1015.99 1016.19 1016.37 1016.50 1016.58 1016.61 1016.62 1016.64 1016.68 1016.78 1016.90 1017.04 1017.15 1017.19 1017.14 1016.99 1016.76 1016.49 1016.24 1016.04 1015.94 1015.95 1016.04 1016.20 1016.38 1016.54 1016.65 1016.72 1016.75 1016.77
1011.83 1012.10 1012.46 1012.90 1013.35 1013.78 1014.16 1014.46 1014.69 1014.88 1015.04 1015.21 1015.40 1015.60 1015.80 1015.99 1016.13 1016.23 1016.27 1016.30 1016.31 1016.35 1016.41 1016.50 1016.58 1016.64 1016.63 1016.54 1016.38 1016.16 1015.92 1015.71 1015.57 1015.52 1015.57 1015.70 1015.87 1016.04 1016.18 1016.27 1016.30 1016.29 1016.28
1011.95 1012.20 1012.52 1012.88 1013.26 1013.62 1013.92 1014.16 1014.35 1014.51 1014.65 1014.81 1014.98 1015.18 1015.38 1015.57 1015.71 1015.81 1015.87 1015.90 1015.91 1015.93 1015.96 1015.99 1016.03 1016.02 1015.97 1015.86 1015.68 1015.48 1015.27 1015.10 1015.01 1015.01 1015.10 1015.25 1015.43 1015.61 1015.74 1015.81 1015.81 1015.78 1015.74
1011.92 1012.18 1012.49 1012.82 1013.15 1013.45 1013.70 1013.90 1014.05 1014.18 1014.30 1014.44 1014.60 1014.78 1014.97 1015.14 1015.29 1015.39 1015.45 1015.47 1015.47 1015.47 1015.46 1015.46 1015.45 1015.41 1015.32 1015.18 1015.00 1014.80 1014.61 1014.47 1014.40 1014.43 1014.54 1014.70 1014.90 1015.07 1015.20 1015.27 1015.27 1015.23 1015.18
1011.73 1012.02 1012.34 1012.67 1012.98 1013.26 1013.49 1013.66 1013.79 1013.89 1013.99 1014.10 1014.24 1014.41 1014.58 1014.74 1014.88 1014.98 1015.03 1015.05 1015.05 1015.03 1015.01 1014.99 1014.95 1014.88 1014.77 1014.62 1014.44 1014.23 1014.04 1013.90 1013.83 1013.85 1013.95 1014.10 1014.29 1014.46 1014.60 1014.67 1014.69 1014.67 1014.63
1011.37 1011.71 1012.07 1012.42 1012.74 1013.02 1013.25 1013.42 1013.53 1013.62 1013.70 1013.79 1013.91 1014.05 1014.20 1014.35 1014.48 1014.58 1014.64 1014.67 1014.67 1014.66 1014.65 1014.63 1014.59 1014.52 1014.41 1014.25 1014.06 1013.84 1013.63 1013.46 1013.35 1013.32 1013.38 1013.50 1013.65 1013.82 1013.95 1014.05 1014.10 1014.11 1014.10
1010.92 1011.30 1011.69 1012.08 1012.43 1012.73 1012.97 1013.15 1013.26 1013.34 1013.40 1013.47 1013.56 1013.67 1013.81 1013.94 1014.07 1014.18 1014.26 1014.32 1014.35 1014.38 1014.39 1014.40 1014.39 1014.34 1014.24 1014.09 1013.89 1013.66 1013.41 1013.18 1013.01 1012.90 1012.88 1012.93 1013.04 1013.17 1013.31 1013.43 1013.51 1013.56 1013.59
1010.46 1010.85 1011.27 1011.68 1012.06 1012.39 1012.65 1012.83 1012.95 1013.02 1013.06 1013.10 1013.16 1013.25 1013.37 1013.50 1013.64 1013.77 1013.88 1013.98 1014.07 1014.15 1014.22 1014.28 1014.31 1014.30 1014.24 1014.10 1013.90 1013.64 1013.35 1013.06 1012.79 1012.59 1012.47 1012.43 1012.47 1012.57 1012.69 1012.81 1012.92 1013.02 1013.09
1010.06 1010.45 1010.86 1011.28 1011.67 1012.02 1012.28 1012.47 1012.58 1012.64 1012.66 1012.68 1012.71 1012.77 1012.87 1013.01 1013.16 1013.32 1013.49 1013.64 1013.79 1013.94 1014.08 1014.20 1014.29 1014.33 1014.30 1014.20 1014.00 1013.73 1013.39 1013.03 1012.68 1012.37 1012.15 1012.02 1011.97 1012.01 1012.10 1012.23 1012.36 1012.48 1012.58
1009.81 1010.15 1010.53 1010.92 1011.31 1011.64 1011.90 1012.08 1012.18 1012.21 1012.20 1012.19 1012.19 1012.24 1012.33 1012.47 1012.65 1012.85 1013.07 1013.29 1013.50 1013.71 1013.91 1014.09 1014.24 1014.33 1014.35 1014.27 1014.09 1013.81 1013.45 1013.04 1012.62 1012.23 1011.91 1011.68 1011.55 1011.52 1011.57 1011.67 1011.80 1011.94 1012.07
1009.73 1009.99 1010.30 1010.65 1010.99 1011.30 1011.53 1011.68 1011.75 1011.75 1011.71 1011.66 1011.64 1011.66 1011.75 1011.91 1012.11 1012.36 1012.63 1012.91 1013.18 1013.45 1013.69 1013.92 1014.11 1014.24 1014.29 1014.25 1014.10 1013.83 1013.47 1013.04 1012.58 1012.13 1011.73 1011.42 1011.21 1011.11 1011.11 1011.17 1011.28 1011.41 1011.55
1009.81 1009.97 1010.20 1010.47 1010.75 1010.99 1011.18 1011.29 1011.31 1011.27 1011.19 1011.11 1011.06 1011.07 1011.17 1011.34 1011.58 1011.87 1012.19 1012.51 1012.83 1013.12 1013.40 1013.65 1013.85 1014.01 1014.09 1014.08 1013.97 1013.74 1013.41 1013.00 1012.53 1012.06 1011.62 1011.25 1010.98 1010.80 1010.73 1010.74 1010.81 1010.91 1011.04
1010.02 1010.08 1010.20 1010.37 1010.56 1010.73 1010.85 1010.89 1010.86 1010.77 1010.65 1010.53 1010.47 1010.48 1010.58 1010.78 1011.05 1011.38 1011.74 1012.10 1012.44 1012.75 1013.04 1013.28 1013.48 1013.64 1013.74 1013.77 1013.70 1013.53 1013.26 1012.90 1012.48 1012.03 1011.58 1011.18 1010.85 1010.61 1010.47 1010.40 1010.42 1010.48 1010.58
1010.28 1010.24 1010.26 1010.32 1010.41 1010.49 1010.52 1010.49 1010.40 1010.25 1010.09 1009.94 1009.86 1009.87 1009.99 1010.22 1010.53 1010.90 1011.30 1011.68 1012.04 1012.35 1012.62 1012.84 1013.03 1013.18 1013.29 1013.35 1013.33 1013.24 1013.06 1012.78 1012.44 1012.04 1011.62 1011.21 1010.85 1010.55 1010.33 1010.19 1010.13 1010.14 1010.20
1010.54 1010.41 1010.33 1010.29 1010.27 1010.25 1010.19 1010.08 1009.91 1009.71 1009.50 1009.33 1009.23 1009.25 1009.39 1009.64 1010.00 1010.41 1010.84 1011.26 1011.62 1011.93 1012.18 1012.37 1012.53 1012.67 1012.78 1012.87 1012.92 1012.91 1012.82 1012.66 1012.41 1012.09 1011.73 1011.34 1010.96 1010.61 1010.32 1010.10 1009.96 1009.90 1009.92
1010.74 1010.54 1010.37 1010.23 1010.12 1009.99 1009.84 1009.65 1009.41 1009.15 1008.89 1008.69 1008.58 1008.60 1008.76 1009.05 1009.45 1009.90 1010.38 1010.82 1011.20 1011.50 1011.73 1011.91 1012.05 1012.17 1012.28 1012.40 1012.50 1012.57 1012.59 1012.53 1012.40 1012.17 1011.88 1011.52 1011.14 1010.76 1010.41 1010.11 1009.89 1009.76 1009.72
1010.86 1010.60 1010.37 1010.15 1009.95 1009.73 1009.49 1009.22 1008.91 1008.59 1008.29 1008.06 1007.94 1007.97 1008.14 1008.46 1008.89 1009.39 1009.90 1010.37 1010.77 1011.09 1011.32 1011.48 1011.60 1011.71 1011.83 1011.96 1012.11 1012.25 1012.36 1012.41 1012.38 1012.25 1012.03 1011.72 1011.34 1010.94 1010.54 1010.17 1009.88 1009.68 1009.58
Thickness
5841 5836 5822 5818 5816 5814 5811 5809 5806 5803 5800 5796 5793 5790 5787 5784 5781 5779 5776 5774 5772 5770 5769 5767 5765 5763 5762 5760 5758 5757 5755 5753 5751 5750 5748 5746 5745 5744 5743 5742 5743 5744 5740
5848 5837 5823 5819 5816 5814 5811 5808 5805 5802 5799 5796 5793 5790 5787 5784 5781 5779 5776 5774 5772 5770 5768 5767 5765 5763 5761 5760 5758 5756 5754 5752 5751 5749 5748 5747 5745 5743 5742 5741 5742 5744 5739
5848 5838 5826 5820 5817 5814 5811 5808 5805 5802 5799 5796 5793 5790 5787 5784 5782 5779 5777 5774 5772 5770 5768 5766 5764 5762 5761 5759 5757 5755 5753 5752 5750 5749 5749 5753 5748 5743 5742 5741 5740 5739 5738
5847 5839 5830 5821 5817 5814 5811 5808 5804 5801 5798 5795 5792 5789 5786 5783 5781 5779 5777 5774 5772 5770 5768 5766 5764 5762 5760 5758 5756 5754 5753 5751 5750 5750 5754 5755 5752 5745 5742 5741 5739 5738 5737
5846 5839 5830 5821 5817 5813 5810 5807 5804 5800 5797 5794 5791 5788 5785 5783 5780 5778 5776 5774 5772 5770 5768 5766 5764 5761 5759 5757 5756 5754 5752 5751 5750 5750 5755 5754 5752 5746 5743 5741 5740 5738 5737
5845 5840 5829 5821 5816 5813 5809 5806 5803 5799 5796 5793 5790 5787 5785 5782 5780 5778 5776 5774 5772 5770 5768 5766 5764 5761 5759 5757 5755 5754 5752 5751 5751 5756 5756 5754 5753 5747 5744 5742 5741 5739 5738
5845 5840 5829 5819 5815 5811 5808 5805 5802 5798 5795 5792 5789 5787 5784 5782 5779 5777 5775 5773 5771 5769 5768 5766 5764 5762 5760 5758 5756 5754 5752 5751 5752 5758 5757 5755 5753 5748 5745 5743 5742 5741 5740
5844 5839 5828 5817 5813 5809 5806 5803 5801 5797 5794 5791 5788 5786 5783 5781 5779 5777 5775 5773 5771 5770 5768 5766 5764 5762 5760 5758 5756 5755 5753 5751 5756 5759 5758 5757 5754 5749 5746 5744 5743 5743 5741
5843 5838 5828 5819 5812 5808 5804 5802 5799 5796 5793 5790 5787 5785 5783 5781 5779 5777 5775 5773 5771 5769 5768 5766 5765 5763 5761 5759 5757 5755 5754 5753 5754 5760 5760 5759 5755 5750 5747 5745 5745 5744 5743
5839 5836 5829 5823 5817 5811 5806 5800 5797 5794 5792 5789 5786 5784 5782 5780 5778 5776 5775 5773 5771 5770 5768 5767 5766 5764 5763 5761 5759 5757 5755 5754 5758 5763 5761 5759 5754 5750 5748 5747 5746 5746 5745
5830 5830 5828 5825 5818 5813 5810 5803 5797 5793 5790 5788 5785 5783 5781 5782 5783 5778 5777 5774 5771 5770 5769 5768 5767 5765 5764 5764 5762 5759 5758 5761 5767 5765 5763 5759 5754 5751 5750 5749 5748 5747 5746
5825 5825 5824 5824 5818 5813 5811 5805 5800 5797 5794 5790 5790 5786 5784 5785 5785 5783 5779 5774 5772 5770 5769 5769 5768 5767 5766 5770 5768 5763 5765 5766 5767 5766 5764 5759 5755 5752 5751 5750 5750 5749 5748
5827 5823 5820 5818 5815 5812 5809 5806 5802 5800 5796 5792 5790 5787 5786 5786 5784 5782 5781 5778 5774 5772 5773 5774 5772 5772 5773 5773 5771 5770 5769 5769 5768 5767 5766 5759 5755 5753 5752 5752 5751 5750 5749
5827 5822 5820 5815 5810 5808 5807 5805 5801 5799 5797 5795 5791 5787 5787 5785 5784 5784 5781 5781 5779 5776 5775 5775 5773 5774 5773 5773 5772 5771 5770 5768 5768 5767 5764 5760 5757 5754 5753 5753 5752 5751 5750
5825 5822 5819 5814 5808 5804 5801 5800 5799 5797 5797 5793 5790 5787 5785 5785 5784 5782 5779 5776 5776 5777 5775 5773 5773 5773 5772 5773 5772 5772 5772 5770 5768 5767 5766 5762 5759 5756 5754 5753 5753 5752 5751
5824 5821 5818 5811 5806 5800 5797 5795 5796 5795 5792 5792 5789 5787 5783 5782 5781 5779 5777 5774 5774 5773 5773 5772 5772 5770 5771 5772 5771 5771 5769 5770 5769 5767 5767 5766 5761 5759 5756 5755 5754 5753 5752
5822 5819 5815 5810 5805 5799 5795 5793 5793 5792 5791 5789 5787 5784 5780 5779 5777 5775 5774 5773 5772 5771 5769 5767 5768 5767 5767 5768 5768 5768 5768 5767 5768 5766 5765 5765 5765 5762 5759 5756 5755 5753 5752
5820 5816 5812 5809 5804 5798 5794 5791 5792 5791 5790 5787 5784 5782 5778 5775 5773 5770 5770 5770 5768 5766 5766 5764 5763 5763 5762 5762 5763 5765 5767 5766 5765 5764 5764 5764 5763 5763 5762 5758 5755 5753 5752
5815 5811 5807 5804 5801 5797 5793 5789 5788 5786 5785 5783 5781 5778 5775 5772 5769 5766 5766 5765 5762 5761 5760 5759 5760 5757 5755 5756 5758 5760 5764 5765 5764 5764 5763 5762 5761 5759 5760 5759 5755 5753 5752
5809 5805 5802 5799 5795 5793 5790 5785 5783 5782 5781 5779 5777 5775 5771 5768 5766 5763 5761 5759 5757 5755 5753 5752 5750 5750 5749 5749 5753 5756 5757 5761 5762 5763 5761 5762 5760 5758 5758 5757 5755 5755 5751
5800 5797 5795 5792 5791 5786 5784 5781 5777 5776 5775 5774 5774 5772 5768 5764 5762 5759 5758 5756 5752 5749 5747 5746 5745 5743 5743 5743 5743 5746 5752 5757 5758 5757 5758 5757 5757 5755 5752 5751 5751 5750 5750
5789 5787 5786 5785 5785 5782 5780 5776 5774 5772 5771 5771 5770 5767 5764 5759 5756 5755 5752 5750 5747 5743 5741 5740 5739 5737 5738 5738 5735 5734 5737 5745 5748 5753 5751 5750 5750 5750 5748 5748 5745 5743 5744
5776 5777 5778 5778 5777 5777 5775 5771 5768 5765 5763 5763 5762 5761 5759 5755 5751 5748 5746 5743 5739 5737 5735 5734 5733 5730 5729 5732 5733 5729 5727 5729 5735 5743 5743 5743 5741 5741 5742 5743 5741 5740 5739
5764 5767 5767 5767 5767 5767 5766 5763 5760 5758 5757 5759 5756 5755 5752 5749 5745 5743 5739 5736 5732 5730 5729 5728 5727 5726 5725 5724 5726 5727 5726 5726 5721 5726 5734 5737 5736 5733 5734 5735 5737 5737 5735
5754 5756 5757 5757 5757 5757 5757 5756 5753 5753 5752 5752 5750 5747 5744 5742 5740 5737 5733 5730 5726 5724 5722 5721 5721 5720 5720 5719 5720 5721 5720 5719 5717 5714 5718 5722 5726 5729 5730 5730 5731 5731 5730
5744 5745 5745 5745 5745 5746 5747 5746 5744 5743 5741 5740 5740 5738 5736 5735 5733 5731 5727 5724 5720 5718 5717 5716 5715 5715 5715 5714 5714 5715 5714 5712 5711 5710 5710 5713 5715 5720 5722 5723 5724 5725 5724